Theta_e
315 318 316 316 315 316 314 311 310 312 315 320 322 321 324 322 323 324 325 328 331 331 328 327 326 325 324 325 325 325 324 324 323 324 324 323 324 323 324 324 324 325 324
313 312 312 312 311 312 312 311 310 311 315 317 319 319 322 322 321 321 322 325 328 329 326 324 324 327 324 324 325 323 323 323 323 322 323 323 322 323 323 323 323 323 323
311 311 310 310 311 311 312 311 310 310 312 315 316 320 321 322 321 320 320 319 320 324 325 322 323 325 325 325 323 323 322 322 321 322 322 322 322 322 322 322 322 322 322
312 311 311 310 311 311 311 310 310 309 309 310 310 312 318 319 319 319 320 317 315 315 320 321 321 322 323 324 322 322 322 321 321 320 321 320 321 321 321 322 322 321 321
312 311 310 310 311 311 310 311 309 309 308 308 310 310 310 310 311 313 311 312 314 313 314 321 320 319 319 320 320 320 321 321 319 319 319 320 320 321 320 320 321 321 321
311 310 310 310 311 310 310 309 309 309 308 308 311 309 309 309 310 309 310 312 312 311 310 311 310 313 317 318 321 322 319 321 319 318 319 319 319 321 320 320 321 319 320
311 309 309 309 311 309 309 309 309 308 307 307 306 305 306 308 309 309 310 310 311 312 310 310 309 308 310 315 317 318 320 321 319 318 318 319 320 320 320 320 319 318 319
310 309 308 308 310 309 309 309 309 307 306 307 304 302 299 302 305 307 307 310 309 310 311 311 309 308 306 306 308 314 316 319 322 319 318 318 318 319 319 319 318 317 318
311 309 309 308 308 309 308 308 309 308 306 306 309 303 298 296 301 303 304 305 306 307 308 309 309 308 306 306 308 308 314 316 321 318 318 319 318 318 318 319 318 316 316
310 311 310 308 308 309 309 308 311 308 307 306 306 308 305 304 298 296 301 302 304 306 307 307 307 307 306 305 308 311 314 316 319 317 315 315 315 318 316 316 315 315 315
310 311 310 308 308 308 309 309 310 309 308 306 304 304 303 304 303 299 295 298 301 304 306 306 306 305 306 306 305 309 312 315 317 315 314 314 316 315 316 314 314 315 314
310 310 311 309 309 309 309 310 309 309 307 308 307 306 303 302 301 300 297 297 297 300 304 305 305 304 304 304 307 309 311 315 315 313 313 313 312 314 312 313 314 313 313
309 310 310 309 309 309 309 309 307 308 307 307 307 306 306 304 304 303 301 298 297 300 301 303 304 304 306 302 303 305 309 311 312 311 311 310 310 309 311 311 312 311 311
310 311 310 309 309 309 309 309 308 307 307 306 306 306 305 305 304 304 302 299 296 296 298 298 301 302 302 301 302 306 305 308 309 309 308 307 306 307 307 308 308 308 308
311 312 312 310 309 309 309 308 309 308 308 307 305 305 304 304 304 303 303 304 299 293 294 297 297 301 299 298 300 300 300 306 305 304 304 304 305 304 303 305 305 305 304
311 311 311 311 310 310 310 309 308 309 307 307 307 305 304 304 304 303 303 303 301 298 294 297 297 299 299 300 300 297 300 302 303 302 303 302 302 301 301 303 303 302 301
311 310 311 311 310 310 309 308 308 309 307 306 306 306 304 304 303 303 303 302 301 300 297 299 299 298 296 294 293 297 298 295 296 302 300 300 301 301 301 303 302 299 300
313 311 311 310 310 310 309 309 308 309 307 306 306 305 305 305 302 302 302 301 300 300 297 296 296 296 294 290 290 295 298 297 295 301 299 299 299 301 302 301 299 298 298
313 311 310 309 309 309 309 309 309 308 308 308 307 306 305 304 302 303 302 302 300 300 298 297 294 295 294 291 288 291 292 291 296 300 298 298 298 301 301 299 297 296 296
312 311 310 310 309 309 309 308 308 307 307 308 307 307 306 306 304 303 303 302 300 298 297 297 294 295 293 289 288 289 287 287 290 295 296 294 296 298 300 299 296 295 294
313 312 311 310 310 309 309 308 307 307 306 306 306 306 306 306 303 305 304 302 300 298 297 296 294 292 292 288 287 289 287 286 286 288 288 288 287 288 289 297 295 295 294
313 313 311 309 309 309 308 307 308 307 306 306 305 305 306 302 303 305 305 304 303 298 297 295 294 293 292 290 288 289 287 286 285 289 286 286 287 285 287 287 295 295 293
313 311 311 310 309 309 306 306 305 306 306 305 304 304 304 304 303 305 305 304 303 303 302 298 295 294 292 292 290 288 288 287 286 288 286 284 286 285 286 290 295 296 293
311 310 310 309 308 308 305 305 304 305 304 305 305 304 304 302 304 303 303 302 301 300 300 299 298 296 295 294 292 290 289 288 285 286 286 282 283 283 285 286 294 294 292
308 308 309 308 307 307 304 304 304 304 302 302 303 303 304 303 303 303 301 299 298 298 300 300 299 299 299 297 294 289 287 286 282 283 285 284 283 283 283 283 287 294 291
305 306 305 306 306 306 303 303 303 302 300 299 299 300 301 301 302 303 301 300 297 296 295 294 294 297 298 297 296 291 289 285 282 282 284 284 282 282 280 283 284 286 286
Wind_Speed
6 8 5 5 4 5 5 4 5 4 4 11 10 7 11 9 8 6 5 12 15 17 15 14 14 13 12 12 15 15 16 15 15 16 16 16 16 16 18 18 18 20 19
6 6 6 5 4 5 4 5 5 4 5 8 10 8 9 7 8 8 7 7 16 14 13 12 12 13 12 13 13 13 14 14 15 14 15 16 16 16 17 18 18 19 19
7 7 6 5 5 5 7 5 4 4 5 5 7 9 7 7 7 8 7 6 9 12 13 12 11 12 12 12 11 12 11 13 13 14 13 15 14 15 16 18 18 18 18
8 6 5 5 5 5 5 5 4 5 5 5 4 5 4 5 5 5 4 5 6 5 8 11 10 11 9 10 9 11 11 12 12 11 14 13 13 15 16 17 17 17 18
8 6 5 5 6 5 5 5 3 5 5 5 5 5 5 5 5 4 6 6 8 7 4 12 12 11 10 9 8 8 9 11 11 11 12 12 13 14 15 14 15 16 16
8 7 5 6 6 5 5 4 5 4 5 5 6 5 4 3 4 4 5 3 6 8 7 6 5 5 9 8 9 10 8 9 11 10 12 12 12 12 14 14 16 15 16
8 7 6 6 6 5 6 7 5 7 4 4 5 5 4 4 4 3 3 4 3 5 6 5 4 4 4 10 8 8 8 8 8 9 9 9 10 11 13 14 14 14 15
8 7 8 6 7 5 7 6 6 4 3 5 5 4 3 3 1 2 2 4 5 3 3 4 6 6 4 4 5 8 8 8 10 10 9 9 10 12 13 13 13 14 14
8 8 8 6 7 5 6 6 7 7 9 4 12 5 4 4 4 2 3 3 5 3 4 4 5 5 6 4 4 5 7 9 9 10 9 9 10 10 11 13 12 12 13
8 7 9 8 7 5 7 6 6 4 5 10 4 2 2 6 4 2 2 3 4 4 5 3 5 4 6 5 6 5 7 6 9 9 7 7 7 9 10 10 11 13 14
8 7 8 8 8 5 7 8 8 6 5 5 3 3 1 0 4 5 3 3 1 2 4 4 5 4 5 5 5 3 6 4 8 7 7 6 8 9 10 11 10 13 15
6 6 7 7 7 7 8 7 7 8 6 5 4 4 4 4 4 4 3 3 4 3 2 3 5 4 4 4 6 6 1 2 8 8 8 9 7 9 8 10 11 12 13
6 10 9 8 6 6 6 7 7 7 7 6 7 4 4 4 3 4 5 5 4 3 2 3 4 5 5 4 4 5 7 6 8 7 7 8 8 8 9 10 11 12 13
11 11 10 7 7 8 7 7 5 6 6 6 8 6 4 5 3 3 5 6 4 1 2 3 2 5 5 5 7 9 5 8 7 7 7 7 7 9 8 10 12 11 13
9 12 13 10 9 8 8 8 8 9 8 6 7 7 4 5 4 4 3 7 6 5 5 5 4 5 5 5 6 5 6 8 8 7 7 7 6 8 8 9 10 11 11
7 11 13 13 11 10 10 9 6 8 8 6 5 7 5 4 5 4 4 4 4 4 4 3 3 5 7 5 7 5 6 8 9 7 8 7 7 6 7 8 11 10 9
10 12 14 14 14 13 13 10 10 10 12 10 8 9 8 7 5 5 4 3 4 3 3 1 3 5 4 7 5 5 7 6 5 9 8 7 8 7 7 9 10 9 9
8 8 12 14 14 14 13 15 13 13 14 14 13 12 12 8 8 6 5 6 5 4 4 6 3 3 4 5 4 5 6 6 5 10 10 9 8 8 8 9 9 9 9
12 13 8 9 12 12 13 14 15 14 14 15 14 14 13 12 10 8 7 7 5 4 5 6 4 2 3 4 3 1 2 5 6 10 11 9 9 8 10 8 8 7 7
13 11 8 8 9 8 8 11 13 14 13 13 12 13 12 15 14 13 12 12 7 6 5 7 4 7 5 4 4 5 4 2 3 5 7 7 8 9 9 8 7 7 6
11 9 11 11 11 10 10 13 13 13 12 11 8 11 11 13 15 13 10 10 10 8 8 9 7 4 6 7 10 4 3 2 2 3 3 3 3 3 3 7 7 7 4
13 15 12 11 10 9 17 20 15 12 12 12 12 9 10 12 14 16 15 14 15 12 10 8 7 9 10 8 6 7 5 4 4 3 3 3 3 4 4 3 9 10 5
9 11 12 13 13 13 16 19 18 10 11 10 10 10 8 8 11 12 15 15 14 16 17 12 11 11 9 11 9 8 6 5 4 3 4 4 4 4 4 5 13 12 9
11 9 10 10 10 9 14 17 18 12 11 12 13 12 13 11 13 13 12 11 10 10 9 7 10 9 8 12 13 11 11 6 3 1 4 4 4 4 3 4 14 13 11
6 7 7 10 12 10 17 19 20 12 9 10 8 10 13 13 18 21 14 13 11 7 9 12 11 13 14 19 13 8 7 8 3 4 4 4 3 3 3 3 4 15 9
3 3 4 4 7 7 12 15 15 7 8 5 5 8 14 11 15 20 14 15 14 11 12 8 5 7 10 13 20 13 10 10 4 1 5 4 3 4 1 3 5 4 5
Wind_Direction
141 154 152 153 164 142 166 178 129 130 131 101 96 85 88 87 84 88 80 83 92 91 85 80 77 81 80 71 68 70 73 65 64 63 66 59 59 54 55 50 51 45 46
141 141 135 149 150 144 152 131 137 123 107 106 111 112 107 102 97 94 88 84 85 85 89 76 71 76 76 82 77 72 66 71 72 68 61 59 53 53 51 53 48 49 44
137 134 140 140 149 144 134 127 120 98 93 95 114 116 126 125 115 120 116 99 84 64 86 78 72 79 76 73 80 77 66 70 59 57 58 61 55 55 52 53 51 48 48
128 128 131 136 151 133 131 125 131 116 107 105 104 113 122 119 129 126 124 113 112 84 66 89 84 67 65 80 78 73 74 66 65 59 52 53 55 51 54 48 51 48 46
129 126 129 139 130 123 121 134 121 123 120 114 115 101 95 90 95 86 85 91 113 115 102 94 82 66 56 50 68 75 73 74 69 61 55 46 51 53 53 49 49 51 49
135 131 134 138 131 129 131 132 135 127 130 136 117 100 98 100 97 106 116 108 115 133 136 131 118 95 79 57 41 46 72 77 70 59 54 50 49 49 60 52 49 50 47
143 143 137 142 140 143 156 150 135 135 129 121 100 73 50 69 86 113 127 131 141 135 155 161 152 129 117 89 65 42 32 54 89 69 61 54 58 60 59 57 58 49 51
149 148 140 153 152 151 156 153 141 134 137 143 137 109 119 352 7 166 161 155 172 147 142 131 125 142 130 107 84 56 29 7 98 80 64 64 66 60 59 59 61 55 50
157 146 147 152 160 156 162 160 154 150 162 172 169 143 145 180 132 234 211 175 158 156 174 143 125 127 134 121 92 44 17 357 104 84 72 58 67 70 70 66 63 59 52
157 153 154 157 169 160 163 159 162 155 145 179 187 137 104 135 164 154 260 207 174 181 164 150 134 132 118 103 84 49 12 348 94 88 80 75 72 75 72 67 64 62 62
156 170 165 163 170 165 166 164 164 166 161 169 162 138 133 150 135 134 164 203 109 185 164 159 149 148 135 139 123 62 22 38 109 105 90 76 81 77 84 74 69 69 62
160 172 172 168 172 170 170 171 163 167 172 170 174 169 154 179 172 143 127 142 154 240 162 158 155 153 142 114 115 114 67 101 115 107 102 87 83 71 78 84 75 70 67
179 185 177 176 172 165 162 165 163 171 182 173 182 192 165 203 165 149 117 160 163 178 184 183 171 158 145 135 136 137 103 91 115 114 110 109 97 94 78 80 80 75 67
185 172 178 170 171 171 170 165 174 173 179 176 179 187 181 192 198 178 144 148 123 135 162 193 173 160 146 141 158 147 119 105 113 123 126 121 117 103 94 90 83 80 75
177 175 174 176 174 177 176 171 182 184 187 183 183 184 176 192 189 184 154 162 145 160 194 205 168 178 135 139 160 159 141 140 135 129 124 123 123 109 103 107 99 86 83
180 174 175 179 182 182 179 176 177 181 178 187 181 181 187 178 176 169 171 178 156 141 165 161 192 143 148 144 167 166 152 131 138 146 142 129 118 118 122 122 106 98 87
180 181 179 184 189 188 183 182 185 184 191 186 184 183 191 178 180 174 172 163 188 144 137 195 116 148 127 144 164 146 144 139 145 157 139 141 131 132 135 129 113 100 89
210 188 182 190 191 191 188 191 188 194 193 191 193 186 188 180 183 176 169 183 176 166 132 150 126 147 128 147 162 164 167 157 153 163 155 152 151 149 150 125 115 96 87
206 208 197 186 194 189 194 197 198 197 197 200 193 195 190 180 178 177 172 179 176 160 142 145 138 133 116 140 140 178 216 143 156 159 157 158 158 159 143 145 136 111 87
191 192 170 189 196 200 211 207 207 204 199 202 195 195 186 195 190 183 181 181 168 160 143 150 136 161 152 146 140 161 191 92 137 161 154 148 157 165 162 163 146 123 97
186 174 183 201 212 205 206 209 213 204 202 198 190 190 196 198 191 187 182 183 171 170 158 160 159 150 167 165 179 158 166 150 195 155 138 160 146 132 180 181 173 166 143
185 176 185 185 209 211 208 207 210 205 206 208 205 197 193 193 193 181 180 180 179 174 168 165 168 179 185 179 153 174 144 161 215 206 137 209 154 189 181 176 199 198 180
186 206 197 180 210 219 204 204 200 198 205 195 196 203 197 196 177 195 178 173 176 185 180 168 176 184 171 179 158 173 170 172 201 162 136 178 171 195 185 176 189 192 195
191 190 202 191 196 218 208 203 193 198 203 210 203 198 202 184 181 175 176 182 181 176 171 169 173 173 172 166 176 181 179 149 65 110 143 179 177 197 179 177 194 193 202
180 186 199 186 194 209 203 193 190 202 192 208 213 201 206 203 185 175 178 176 174 166 135 128 144 154 153 164 164 139 163 161 174 208 192 134 178 148 163 181 209 202 201
141 154 192 195 216 204 196 198 185 188 197 190 192 197 199 194 188 181 191 181 177 176 146 121 115 132 146 170 173 184 164 177 158 168 207 143 143 137 201 213 182 205 194